Weather History for Marathon, FL

Change the Weather History Date:

Friday, January 25, 2013

  Actual Average Record
Temperature  
Mean Temperature 72 °F 70 °F  
Max Temperature 77 °F 75 °F 83 °F (2007)
Min Temperature 66 °F 65 °F 48 °F (2003)
Degree Days  
Heating Degree Days 0 1  
Month to date heating degree days 0 34  
Since 1 July heating degree days 6 55  
Cooling Degree Days 7 6  
Month to date cooling degree days 262 150  
Year to date cooling degree days 262 150  
Growing Degree Days 20 (Base 50)    
Moisture  
Dew Point 55 °F    
Average Humidity 58    
Maximum Humidity 73    
Minimum Humidity 43    
Precipitation  
Precipitation 0.00 in 0.05 in 1.12 in (2007)
Month to date precipitation 0.54 1.24  
Year to date precipitation 0.54 1.24  
Snow  
Snow 0.00 in - - ()
Month to date snowfall 0.0  
Since 1 July snowfall 0.0  
Snow Depth 0.00 in    
Sea Level Pressure  
Sea Level Pressure 30.21 in    
Wind  
Wind Speed 10 mph (NE)    
Max Wind Speed 16 mph    
Max Gust Speed 21 mph    
Visibility 10 miles    
Events      
T = Trace of Precipitation, MM = Missing Value Source: NWS Daily Summary

Daily Weather History Graph

Daily Weather History Graph

Search for Another Location

Airport:

Trip Planner

Search our weather history database for the weather conditions in past years. The results will help you decide how hot, cold, wet, or windy it might be!

Date:

Astronomy

Jan. 25, 2013 Rise Set
Actual Time 7:08 AM EST 6:04 PM EST
Civil Twilight 6:44 AM EST 6:28 PM EST
Nautical Twilight 6:17 AM EST 6:56 PM EST
Astronomical Twilight 5:49 AM EST 7:23 PM EST
Moon 5:00 PM EST (1/25) 5:46 AM EST (1/25)
Length of Visible Light 11h 44m
Length of Day
10h 55m
Waxing Gibbous, 98% of the Moon is Illuminated
Jan 25
Waxing Gibbous
Jan 26
Full
Feb 3
Last Quarter
Feb 10
New
Feb 17
First Quarter

Hourly Weather History & Observations

Time (EST) Temp. Dew Point Humidity Pressure Visibility Wind Dir Wind Speed Gust Speed Precip Events Conditions
12:53 AM 68.0 °F 55.0 °F 63% 30.23 in 10.0 mi NE 10.4 mph - N/A   Mostly Cloudy
1:53 AM 68.0 °F 54.0 °F 61% 30.22 in 10.0 mi NE 12.7 mph - N/A   Partly Cloudy
2:53 AM 68.0 °F 55.0 °F 63% 30.22 in 10.0 mi NNE 11.5 mph - N/A   Partly Cloudy
3:53 AM 66.9 °F 55.0 °F 66% 30.22 in 10.0 mi NE 11.5 mph - N/A   Partly Cloudy
4:53 AM 66.9 °F 55.0 °F 66% 30.22 in 10.0 mi NNE 10.4 mph - N/A   Clear
5:53 AM 66.9 °F 55.0 °F 66% 30.22 in 10.0 mi NE 9.2 mph - N/A   Clear
6:53 AM 66.0 °F 54.0 °F 65% 30.23 in 10.0 mi NNE 13.8 mph - N/A   Clear
7:53 AM 66.9 °F 55.9 °F 68% 30.24 in 10.0 mi NNE 10.4 mph - N/A   Clear
8:53 AM 68.0 °F 55.0 °F 63% 30.25 in 10.0 mi NNE 11.5 mph - N/A   Partly Cloudy
9:53 AM 70.0 °F 54.0 °F 57% 30.27 in 10.0 mi NNE 13.8 mph - N/A   Clear
10:53 AM 71.1 °F 54.0 °F 55% 30.27 in 10.0 mi NNE 11.5 mph - N/A   Clear
11:53 AM 73.0 °F 55.9 °F 55% 30.25 in 10.0 mi NNE 12.7 mph - N/A   Clear
12:53 PM 75.0 °F 55.9 °F 51% 30.22 in 10.0 mi NE 12.7 mph - N/A   Clear
1:53 PM 75.9 °F 57.9 °F 54% 30.19 in 10.0 mi NE 12.7 mph - N/A   Clear
2:53 PM 75.9 °F 55.9 °F 50% 30.18 in 10.0 mi NE 12.7 mph - N/A   Partly Cloudy
3:53 PM 75.9 °F 52.0 °F 43% 30.17 in 10.0 mi East 10.4 mph 17.3 mph N/A   Clear
4:53 PM 73.9 °F 52.0 °F 46% 30.17 in 10.0 mi ENE 8.1 mph 18.4 mph N/A   Clear
5:53 PM 73.0 °F 53.1 °F 49% 30.18 in 10.0 mi East 5.8 mph - N/A   Clear
6:53 PM 72.0 °F 52.0 °F 49% 30.19 in 10.0 mi ENE 4.6 mph - N/A   Clear
7:53 PM 70.0 °F 55.0 °F 59% 30.20 in 10.0 mi NE 4.6 mph - N/A   Partly Cloudy
8:53 PM 70.0 °F 59.0 °F 68% 30.20 in 10.0 mi NE 4.6 mph - N/A   Clear
9:53 PM 69.1 °F 60.1 °F 73% 30.20 in 10.0 mi NE 5.8 mph - N/A   Clear
10:53 PM 69.1 °F 60.1 °F 73% 30.21 in 10.0 mi NNE 6.9 mph - N/A   Scattered Clouds
11:53 PM 69.1 °F 60.1 °F 73% 30.20 in 10.0 mi NNE 5.8 mph - N/A   Partly Cloudy